Location: El Dieciséis
(32.4721°N, 116.6080°W)
Time: 02:57:45
(UTC+00:00)

Cosmos-2242 - Pass Details

Date: 21 September 2024
Orbit: 577 x 600 km, 82.5° (Epoch: 08 October)

Event Time Altitude Azimuth Distance (km) Brightness Sun altitude
Exits shadow 12:38:12 19° 267° (W) 1,422 4.3 -12.6°
Maximum altitude 12:39:01 20° 283° (WNW) 1,382 4.3 -12.5°
Drops below altitude 10° 12:42:10 10° 331° (NNW) 1,929 5.4 -11.8°
Sets 12:44:53 0° 349° (NNW) 2,840 6.4 -11.2°
